Miscellaneous Local Product
Issued by NWS North Platte, NE

Home | Current Version | Previous Version | Text Only | Print | Product List | Glossary On
Versions: 1 2 3 4 5 6 7 8 9 10 11 12 13 14 15 16 17 18 19 20 21 22 23 24 25 26 27 28 29 30 31 32 33 34 35 36 37 38 39 40 41 42 43 44 45 46 47 48 49 50
000
AXUS43 KLBF 260010
MISLBF


WESTERN AND NORTH CENTRAL NEBRASKA HOURLY WEATHER ROUNDUP
NATIONAL WEATHER SERVICE NORTH PLATTE NE
700 PM CDT THU MAY 25 2017

NOTE: "FAIR" INDICATES FEW OR NO CLOUDS BELOW 12,000 FEET WITH NO
SIGNIFICANT WEATHER AND/OR OBSTRUCTIONS TO VISIBILITY.

NOTE: STATIONS NOT REPORTING VARIABLES SUCH AS SKY/WEATHER OR
PRESSURE ARE PROVIDED BY RAWS AND APRS NETWORKS AND ARE NOT UNDER
NATIONAL WEATHER SERVICE QUALITY CONTROL.

...OBSERVATIONS IN AND NEAR THE EASTERN PANHANDLE OF NEBRASKA...

CITY           SKY/WX    TMP DP  RH WIND       PRES   REMARKS
PINE RIDGE     PTSUNNY   71  43  36 W10       29.61R
GORDON         CLOUDY    69  47  44 NW7       29.62R
CHADRON        PTSUNNY   69  39  33 NW10      29.62R
ALLIANCE       CLOUDY    64  50  60 E3        29.62R
SIDNEY         CLOUDY    65  47  52 N20G25    29.65R
$$

...OBSERVATIONS IN NORTHERN NEBRASKA AND FAR SOUTHERN SOUTH DAKOTA...

CITY           SKY/WX    TMP DP  RH WIND       PRES   REMARKS
WINNER         FAIR      71  43  36 NW7       29.57R
VALENTINE      CLOUDY    71  42  35 E6        29.59R
THEDFORD       CLOUDY    69  53  56 NE5       29.63R
AINSWORTH      PTSUNNY   67  52  57 N5        29.59R
O`NEILL        SUNNY     71  54  55 CALM      29.58R
ORD            PTSUNNY   70  54  56 W6        29.56R
BROKEN BOW     CLOUDY    71  54  54 SW8       29.61R
VALENTINE NWR    N/A     68  43  39 NE6         N/A
HALSEY           N/A     72  49  44 CALM        N/A
BUTTE            N/A     71  53  53 CALM        N/A
CHAMBERS         N/A     74  52  45 CALM        N/A
EWING            N/A     73  54  51 W7          N/A
$$

...OBSERVATIONS IN SOUTHWEST NEBRASKA AND FAR NORTHEAST COLORADO...

CITY           SKY/WX    TMP DP  RH WIND       PRES   REMARKS
WRAY           MOCLDY    63  52  67 E7        29.65R
IMPERIAL       LGT RAIN  60  52  74 SW12      29.63R
OGALLALA       CLOUDY    62  56  81 W7        29.65R
NORTH PLATTE   CLOUDY    65  57  75 NW8       29.57R
MCCOOK         LGT RAIN  69  56  62 N15       29.59R
LEXINGTON      CLOUDY    72  56  57 NW8       29.59S
STAPLETON        N/A     66  56  70 CALM        N/A
GOTHENBURG       N/A     73  50  45 NW6         N/A
CALLAWAY         N/A     72  55  54 SW3         N/A
$$

...OBSERVATIONS IN CENTRAL LINCOLN COUNTY AREA...

CITY           SKY/WX    TMP DP  RH WIND       PRES   REMARKS
N.P. AIRPORT   CLOUDY    65  57  75 NW8       29.57R
N.P. DOWNTOWN    N/A     62  55  77 CALM        N/A
N.P. SOUTHEAST   N/A     63  54  72 NW3G12      N/A
N.P. HILLCREST   N/A     62  55  79 NW5         N/A
$$

...SOME OBSERVATIONS FROM AROUND THE REGION...

CITY           SKY/WX    TMP DP  RH WIND       PRES   REMARKS
DENVER         CLOUDY    65  43  44 N9        29.67R
LIMON          CLOUDY    60  45  57 NE21G31   29.64S
ASPEN          PTSUNNY   56  36  47 SE9       29.85F
LARAMIE        CLOUDY    50  37  61 MISG      29.80R
CASPER         MOSUNNY   59  31  34 N17       29.73R
CHEYENNE       LGT RAIN  53  44  71 NW9       29.77R
SCOTTSBLUFF    PTSUNNY   69  43  38 N12       29.64R
GRAND ISLAND   CLOUDY    73  55  53 S7        29.56R
OMAHA          PTSUNNY   76  52  43 S14       29.55R
SIOUX FALLS    PTSUNNY   70  53  54 S13       29.55S
PIERRE         MOSUNNY   74  31  20 NW9       29.52R
RAPID CITY     MOSUNNY   66  34  30 N16G22    29.61R
BISMARCK       MOSUNNY   71  42  35 W22G29    29.50R
KANSAS CITY    MOSUNNY   73  55  53 SE18      29.57F
HILL CITY      CLOUDY    77  58  51 NE7       29.48R
WICHITA        MOSUNNY   82  60  47 S22G29    29.47F
DODGE CITY     MOSUNNY   80  60  50 SE13G23   29.44F
OKLAHOMA CITY  PTSUNNY   85  60  42 S15G26    29.50F
DALLAS         PTSUNNY   90  60  36 S23G32    29.58F
AMARILLO       CLOUDY    93  26   9 W20G31    29.58S
$$




USA.gov is the U.S. government's official web portal to all federal, state and local government web resources and services.